GFSSGP_sfc_thetae_273.txt.gz
Theta_e
319 314 311 312 298 295 290 296 299 296 297 297 300 299 296 294 294 297 303 303 305 306 308 309 319 320 321 322 322 323 323 324 325 325 326 327 329 331 334 337 339 341 342 343 341 340 339 340 341
315 314 311 305 293 289 290 297 297 299 298 298 298 299 296 293 297 298 299 304 305 307 306 311 317 318 319 320 321 321 322 322 323 324 325 325 326 327 328 331 333 337 340 342 342 342 340 340 341
312 310 301 298 291 288 292 296 296 299 298 300 295 297 294 293 297 297 301 303 303 304 306 310 316 317 318 318 319 320 321 321 322 323 323 323 324 324 325 326 327 330 334 339 342 342 341 342 340
305 304 296 289 285 287 294 298 298 297 298 298 295 292 294 297 296 298 302 302 301 302 304 308 314 316 316 317 318 319 319 320 321 321 321 322 322 321 322 322 323 325 328 332 336 340 340 340 340
303 298 289 285 284 287 293 300 297 296 295 295 295 291 292 296 299 299 299 301 300 301 302 304 312 313 314 315 316 316 317 318 318 318 319 319 319 319 320 320 320 321 323 327 333 335 337 339 338
299 296 288 284 283 286 288 295 296 293 294 293 292 289 290 296 296 297 298 299 300 300 302 302 306 309 311 312 314 314 315 316 316 316 317 317 316 317 317 317 318 319 320 322 324 328 329 334 337
297 291 286 283 284 286 289 292 293 293 290 290 294 288 290 293 296 297 297 298 299 300 300 300 301 304 307 309 311 312 313 313 314 314 314 314 313 313 314 315 315 317 318 319 321 323 326 330 334
296 291 284 283 284 286 289 289 291 291 289 292 292 287 286 292 296 296 297 297 298 299 299 299 300 301 301 302 309 310 312 313 313 313 312 312 310 310 310 311 312 315 316 316 316 320 323 327 329
296 288 285 286 286 288 289 289 290 291 290 290 291 290 292 295 296 295 295 295 296 298 298 298 298 300 301 303 306 307 308 310 310 310 310 309 307 306 306 309 311 313 314 314 314 317 319 322 325
293 288 288 288 288 286 289 289 290 288 287 287 289 292 294 294 293 293 292 293 294 295 296 298 298 299 300 304 303 303 305 305 306 305 305 305 304 305 308 307 310 310 311 312 313 315 318 318 324
288 288 287 288 289 290 289 287 289 288 285 288 289 290 292 292 292 293 292 293 293 295 296 298 298 299 299 300 302 303 303 305 306 304 304 304 304 305 305 306 307 307 308 309 308 309 312 314 319
288 288 289 290 290 290 289 289 287 287 287 291 291 292 291 291 291 292 292 293 294 295 296 297 297 298 299 301 301 302 303 305 303 304 304 302 302 302 303 304 306 307 308 308 307 307 310 313 319
287 287 289 289 290 289 290 286 287 287 288 291 292 293 291 291 291 292 293 294 295 294 295 296 297 297 299 300 303 304 303 303 302 302 302 301 301 301 303 305 307 307 308 308 306 306 308 311 317
287 288 287 288 288 289 288 286 287 287 289 290 291 290 290 291 292 291 293 293 294 295 295 296 297 297 298 299 302 302 302 302 299 299 299 299 300 301 304 305 306 309 309 309 309 306 307 309 315
288 285 285 285 286 286 288 285 286 288 289 289 289 288 290 291 292 291 292 293 293 294 294 295 297 297 297 298 301 300 299 300 297 296 296 296 297 298 302 303 303 305 307 308 310 310 309 313 319
285 282 279 282 287 286 285 280 284 288 287 287 287 286 289 291 292 292 293 293 293 293 293 294 297 295 296 296 297 298 297 296 295 294 294 294 295 296 298 298 299 303 303 304 306 310 310 309 312
282 277 278 282 287 286 283 279 285 287 287 286 285 285 288 289 290 291 292 292 293 293 293 293 293 293 295 296 296 295 295 294 294 292 292 292 293 294 295 295 296 299 299 299 301 305 305 302 303
277 277 281 280 285 284 282 282 284 287 287 286 285 285 287 289 290 292 293 293 293 293 292 292 293 292 293 294 295 294 292 292 291 290 290 290 291 292 292 293 292 294 293 294 297 299 302 300 299
282 281 278 281 285 285 283 284 285 286 287 286 285 284 286 288 291 292 293 292 293 292 290 290 290 290 291 291 290 291 290 289 289 290 290 289 289 290 290 290 290 290 290 290 292 296 297 297 299
283 279 279 282 284 284 282 283 286 287 288 289 288 286 287 288 289 290 291 291 292 290 289 289 289 290 290 291 290 290 289 289 289 289 289 288 288 288 289 289 288 288 288 287 287 290 293 294 296
282 280 279 280 283 283 281 280 282 284 286 290 290 288 288 289 289 290 290 289 289 288 288 289 289 289 289 291 290 289 289 287 286 286 286 287 287 287 287 287 287 287 287 285 285 286 287 288 292
280 285 284 284 280 276 280 274 280 281 283 285 288 286 288 289 291 290 290 289 289 288 288 289 289 290 290 290 287 286 285 283 285 285 285 286 286 286 286 286 286 286 286 285 285 285 284 287 286
283 287 285 283 280 278 278 275 279 283 283 286 287 286 288 290 290 290 290 289 288 288 287 289 289 289 289 288 287 285 283 284 284 284 283 284 284 284 285 285 285 285 285 284 284 283 282 283 285
288 285 284 281 279 274 281 277 277 280 285 287 287 286 288 289 290 291 290 289 288 288 288 289 288 288 288 287 286 284 283 282 282 282 282 282 283 283 283 284 284 284 284 283 283 283 283 282 283
286 282 278 276 272 276 277 274 282 287 286 287 286 285 288 290 289 290 288 288 288 288 288 289 288 286 286 286 285 284 284 283 282 282 282 282 282 282 282 282 282 282 283 283 283 283 282 282 281
282 282 280 273 271 274 278 275 281 285 287 288 287 286 288 289 290 289 288 288 289 289 289 288 287 286 285 285 284 284 284 283 283 282 282 281 282 282 282 282 282 282 282 282 282 282 283 282 282
282 279 284 279 269 273 278 281 286 283 284 285 284 286 287 288 289 288 288 289 289 289 289 288 287 286 285 284 283 283 283 282 282 282 282 281 282 283 281 281 281 281 281 281 282 281 281 282 282
283 284 278 277 270 268 275 277 280 284 283 283 283 283 285 287 288 287 289 289 288 288 288 288 288 286 284 283 283 283 282 282 281 281 281 281 281 282 281 281 280 280 280 280 281 281 281 282 280
281 279 280 280 278 274 271 277 281 281 282 283 284 285 286 287 288 287 289 289 288 288 287 287 286 285 284 283 282 282 281 281 281 280 280 280 281 281 281 281 280 280 279 280 279 279 279 280 280
282 281 281 277 277 276 277 276 284 283 284 285 285 286 286 288 288 287 288 288 286 286 286 286 285 284 283 283 282 282 281 280 279 279 280 281 280 281 280 281 280 279 279 279 279 278 278 279 278

GFSSGP_sfc_thetae_276.txt.gz
Theta_e
317 312 311 309 297 295 291 295 296 296 296 297 298 298 295 294 294 297 302 302 304 306 307 310 319 320 320 321 322 322 323 324 324 325 325 326 326 326 327 328 329 332 336 340 343 343 342 342 342
312 312 310 303 293 289 292 295 295 298 297 297 298 298 295 292 296 297 298 302 303 304 306 309 316 318 319 320 320 321 321 322 323 324 324 324 324 324 324 325 325 326 330 334 337 340 341 342 342
310 306 300 295 289 288 291 297 295 296 297 297 294 296 294 292 295 296 299 302 303 303 305 307 315 317 318 319 320 320 321 322 322 322 322 323 322 323 323 323 323 323 325 328 333 336 339 339 340
305 302 295 289 286 287 292 296 296 296 296 297 295 291 293 296 296 296 301 301 301 301 302 306 314 316 317 317 318 318 318 319 319 319 320 320 320 320 320 321 321 321 322 323 325 330 333 334 336
302 295 289 285 284 287 294 298 296 295 294 294 294 291 291 295 297 298 299 300 299 299 301 302 311 313 314 315 315 316 316 317 317 317 317 318 318 318 319 319 319 320 320 321 322 323 326 330 332
298 295 288 285 284 286 288 296 295 293 293 292 291 289 290 294 295 296 298 298 299 299 301 301 305 309 311 312 313 314 315 315 316 316 316 316 315 316 316 317 317 318 319 320 321 321 321 324 329
296 290 285 283 284 286 289 293 292 292 290 290 293 287 289 292 294 296 296 297 298 299 299 299 300 302 306 309 311 312 313 314 314 314 314 314 313 313 313 314 314 316 316 317 317 318 318 320 324
294 290 283 283 284 285 288 289 291 290 288 292 291 287 286 291 295 296 296 296 297 298 298 298 299 300 300 301 309 310 311 311 311 311 311 310 309 310 310 311 312 315 315 314 315 315 317 319 320
294 289 284 285 286 288 288 289 289 290 290 289 290 289 291 294 295 294 293 295 295 298 297 298 297 298 300 303 305 306 308 309 309 307 308 305 304 304 306 309 312 314 314 314 314 314 316 316 318
292 287 288 288 287 286 287 288 290 288 287 287 288 291 293 293 292 292 292 292 293 294 295 297 297 298 299 304 302 301 304 304 303 303 302 302 303 303 306 307 310 311 311 312 314 314 313 312 313
287 288 287 287 288 288 288 286 288 287 285 288 288 290 291 290 292 292 292 292 292 293 295 296 296 297 298 300 301 301 302 302 302 302 301 302 302 303 304 305 307 308 309 308 309 309 307 308 311
288 287 287 289 290 289 288 288 286 287 287 289 290 291 290 290 291 291 291 292 293 293 294 296 296 297 298 299 300 301 301 300 299 301 301 299 301 302 303 306 307 308 309 308 309 307 308 308 310
287 286 288 288 289 288 289 286 287 287 288 289 291 292 290 290 291 291 292 293 293 293 294 295 296 296 298 299 300 299 300 299 297 297 298 298 297 299 303 304 304 305 307 308 309 310 309 309 312
286 287 286 287 287 287 286 286 286 286 288 289 290 289 289 290 291 290 291 291 292 294 293 295 296 296 298 298 298 298 297 296 295 294 294 295 295 296 298 299 299 301 303 305 308 311 311 311 315
286 284 284 284 285 285 287 284 285 286 288 288 288 288 289 290 292 290 290 291 291 292 293 294 296 296 296 296 296 296 296 295 293 293 292 292 293 293 296 295 295 297 299 301 303 305 306 306 307
284 281 279 281 286 285 284 280 282 286 287 286 286 285 288 290 291 290 292 291 291 292 292 293 296 295 295 295 294 294 293 292 291 290 290 291 292 292 293 292 291 294 295 296 299 302 301 301 301
281 277 277 280 286 284 282 279 283 286 286 285 285 285 287 288 289 290 291 291 291 291 292 292 292 293 294 294 293 291 291 290 290 289 289 289 290 291 290 290 290 291 290 291 294 298 299 297 297
277 277 278 278 284 283 281 283 283 284 286 286 285 284 286 287 289 291 291 291 292 291 290 290 291 291 293 293 293 290 289 289 289 288 288 288 288 289 289 289 288 289 288 287 289 292 296 295 295
280 279 277 279 283 282 281 282 285 285 285 285 285 285 286 287 290 291 292 291 291 289 289 289 289 290 290 290 289 289 287 287 287 287 287 287 287 287 287 287 287 287 286 285 286 288 290 292 293
280 279 278 281 283 282 280 282 285 285 286 287 288 287 286 288 288 289 290 290 291 288 289 288 289 289 289 289 289 289 287 287 286 286 286 286 286 286 287 286 286 286 285 284 284 286 287 288 292
280 280 279 279 281 281 280 279 281 284 285 287 290 290 288 288 288 289 289 288 288 287 287 288 288 288 288 289 290 288 287 285 284 284 284 284 285 285 285 285 285 285 285 283 283 284 286 285 288
280 284 283 283 280 276 279 274 280 283 284 285 288 287 286 287 289 290 289 287 286 286 287 288 289 289 289 289 286 284 282 282 283 283 283 283 284 284 284 285 284 284 284 283 283 283 284 284 282
282 286 284 282 279 277 277 275 281 283 284 288 285 285 285 288 290 289 289 289 287 287 287 287 288 288 288 287 286 283 282 282 282 282 282 282 283 283 283 283 283 283 283 283 282 282 282 284 283
287 285 283 280 278 274 278 277 279 283 284 285 285 283 285 288 290 290 290 288 287 287 287 287 287 287 287 286 285 283 282 281 280 281 281 281 281 282 282 283 282 283 282 282 282 282 281 281 282
284 282 277 275 272 276 277 274 281 286 285 284 285 284 286 289 289 289 288 287 287 287 287 287 286 285 285 285 285 284 283 281 281 281 281 281 280 280 281 281 281 281 282 282 282 282 282 281 280
281 282 278 272 273 275 278 278 284 283 285 286 286 284 286 287 289 289 288 287 287 288 287 287 285 284 284 285 284 284 283 282 281 281 281 281 281 280 281 280 281 281 281 281 282 282 281 281 280
281 279 282 278 268 273 278 282 286 284 284 285 284 285 285 286 287 288 287 287 287 287 287 286 286 285 284 284 284 283 282 281 281 281 281 281 281 282 280 280 280 280 281 281 280 282 281 280 280
282 284 279 277 271 269 276 276 280 282 282 284 283 283 284 285 286 286 287 287 288 287 287 287 286 284 283 284 284 283 282 281 281 281 281 281 281 281 280 280 280 280 280 280 280 279 280 279 279
280 279 280 280 279 274 271 278 281 279 282 283 284 284 285 286 286 286 288 288 288 287 287 287 286 284 283 284 283 282 281 281 281 280 280 280 280 280 280 279 279 279 279 279 278 279 279 278 278
281 280 281 277 276 276 276 276 283 283 284 284 284 285 285 287 287 287 288 287 286 287 286 286 285 284 283 283 282 282 281 280 280 279 280 280 279 280 279 279 279 279 279 278 278 277 277 277 277

GFSSGP_sfc_thetae_279.txt.gz
Theta_e
318 313 315 311 302 299 295 298 300 298 298 298 300 300 298 296 298 300 304 304 306 306 307 311 318 320 321 321 322 323 322 323 324 325 325 325 325 325 325 325 325 326 328 330 334 337 340 340 341
313 314 312 305 297 293 295 300 297 299 298 299 299 299 296 293 298 299 301 304 305 305 306 309 317 319 320 321 321 321 322 323 323 323 323 324 324 324 324 324 324 324 325 326 328 330 335 338 338
313 307 304 299 293 293 295 300 298 297 299 299 296 297 296 294 299 299 302 303 304 304 305 309 316 318 319 319 320 320 320 321 321 321 322 322 323 322 322 323 322 323 324 324 325 326 327 330 333
308 304 298 293 290 292 297 299 297 297 299 298 297 293 297 299 298 300 302 303 303 303 304 307 314 316 317 317 318 318 318 319 319 319 320 320 320 320 320 321 321 321 322 323 324 324 324 324 327
303 299 292 289 290 292 297 300 298 298 297 297 297 293 293 297 299 300 301 302 301 302 303 304 311 313 314 315 316 317 317 318 318 318 318 318 317 317 318 318 318 319 320 321 321 322 322 322 322
300 298 292 289 290 291 296 299 299 297 297 296 294 292 293 298 298 299 300 301 301 301 302 303 305 309 311 313 314 315 316 316 316 316 316 316 315 316 316 316 316 318 319 318 318 318 318 319 320
298 294 289 288 288 291 293 298 297 296 294 295 296 292 294 296 297 299 299 300 301 301 302 302 303 304 306 308 311 312 314 314 314 314 314 313 312 313 314 314 316 317 317 317 317 316 317 318 319
295 292 288 287 287 291 291 294 296 296 293 295 295 292 292 296 297 299 299 300 300 301 301 301 302 303 304 305 308 310 311 311 311 310 310 308 308 309 311 311 313 317 317 316 317 316 316 317 317
298 291 287 289 288 291 290 292 293 294 292 293 294 293 294 296 297 297 297 298 299 300 300 301 301 302 303 306 306 306 307 307 307 306 306 305 306 306 309 309 313 315 315 316 316 317 317 316 314
294 291 291 291 290 290 290 292 292 292 291 291 292 293 295 295 296 295 295 296 296 297 298 300 300 301 303 305 305 305 305 304 304 303 303 303 305 305 306 308 311 312 312 314 315 316 315 313 315
291 290 289 289 290 290 290 289 291 290 289 291 291 292 293 294 294 294 295 296 296 297 298 299 300 301 302 303 304 304 303 302 302 301 301 302 302 303 304 307 307 307 309 310 311 311 311 312 313
290 289 289 291 291 290 289 290 289 289 291 293 293 293 293 293 293 294 295 295 296 296 297 298 299 300 302 302 301 301 300 299 298 298 298 298 299 300 302 303 303 304 306 307 309 313 313 314 316
289 288 289 289 290 289 290 288 289 288 290 291 292 293 292 292 293 294 296 296 296 296 296 298 299 300 301 300 300 299 297 297 296 296 296 296 296 297 299 299 300 301 303 304 306 309 309 310 313
287 288 287 289 289 289 288 287 289 288 289 290 291 291 291 292 293 294 295 295 295 295 296 298 298 299 299 298 297 297 296 295 294 294 293 294 295 294 295 295 295 296 299 301 304 305 305 306 308
287 286 285 286 287 287 288 286 286 288 289 289 289 290 290 292 293 294 295 294 295 295 295 297 299 298 297 296 295 294 294 293 292 292 292 292 293 293 293 293 292 293 295 297 302 302 303 303 305
284 283 281 283 287 287 286 282 283 287 288 288 288 288 289 292 293 294 295 295 294 294 294 296 298 297 296 294 293 293 292 292 291 290 290 291 291 292 291 291 290 291 292 293 296 300 299 299 302
281 278 279 281 286 286 284 282 284 287 287 287 287 287 288 290 291 293 294 294 294 294 294 294 295 296 295 294 292 292 291 290 290 289 289 289 290 290 290 289 289 290 289 290 292 295 296 295 297
279 278 279 279 283 284 283 283 284 286 286 287 287 287 287 289 291 293 294 294 294 292 292 293 294 295 295 295 294 292 290 289 289 288 288 288 289 289 289 289 289 289 288 288 290 292 294 293 294
281 280 278 279 283 283 282 282 286 285 286 286 287 287 287 288 291 293 293 293 292 291 291 291 292 292 294 293 293 292 288 287 287 288 287 287 288 288 288 288 288 288 287 286 288 290 290 291 292
282 281 279 281 283 283 281 283 286 286 286 287 288 288 288 287 289 291 292 292 292 290 290 290 290 291 292 292 292 291 290 288 287 287 287 286 286 287 287 287 286 287 286 286 286 287 289 290 291
281 280 279 280 282 282 281 281 283 286 286 288 289 289 289 288 289 290 291 291 290 289 289 290 290 290 290 291 291 290 288 287 286 285 285 285 286 286 286 286 286 286 286 285 285 286 286 286 288
280 283 283 283 281 278 281 277 282 286 286 287 287 288 287 288 290 291 290 290 289 288 289 290 290 290 289 289 287 286 285 284 285 284 284 285 285 285 286 286 285 285 285 285 285 285 286 286 285
281 285 284 283 280 278 279 277 283 286 287 286 287 287 286 287 290 290 291 291 289 288 288 289 289 289 288 287 287 285 284 284 284 284 283 284 284 284 284 285 285 285 285 285 284 284 284 284 284
287 285 283 280 280 276 279 279 284 287 286 286 286 287 286 287 290 291 291 290 288 288 288 288 288 287 288 286 286 285 284 283 283 283 283 283 283 283 284 284 284 284 284 284 284 284 283 283 283
284 282 276 275 274 276 278 277 284 286 286 286 286 286 285 288 289 289 289 288 287 287 287 288 287 286 286 286 285 285 284 284 283 283 282 282 282 282 282 283 283 283 284 284 284 283 283 283 282
282 282 278 272 274 276 278 277 285 285 286 287 286 286 287 287 289 289 289 288 287 288 287 288 286 285 286 286 285 285 285 284 284 283 283 282 282 282 282 283 283 283 283 283 284 283 283 282 282
282 279 283 276 268 275 279 283 288 285 284 286 286 286 285 286 288 288 288 288 288 288 287 287 286 285 285 285 284 284 284 283 283 283 283 283 283 283 282 282 282 282 282 282 282 282 281 282 281
282 284 279 277 271 270 277 278 282 282 283 284 284 285 285 286 287 288 288 288 288 288 288 287 286 285 285 285 284 283 283 283 283 283 282 282 282 282 282 281 281 281 281 281 281 281 281 281 281
281 279 280 281 279 275 273 279 282 282 282 284 284 286 286 286 287 288 288 288 289 288 287 286 286 285 284 284 284 283 283 283 283 282 282 282 282 281 281 281 281 281 280 280 280 280 280 280 280
281 280 281 279 276 276 277 279 285 283 283 285 286 287 286 287 287 287 288 287 287 287 287 286 285 284 285 284 283 283 283 282 282 281 282 282 281 281 281 281 280 280 280 280 279 279 279 279 279

GFSSGP_sfc_thetae_282.txt.gz
Theta_e
323 323 328 323 309 309 303 303 307 304 303 302 304 306 306 301 302 304 308 309 309 309 310 313 319 321 322 322 323 323 324 324 325 325 325 326 326 325 326 325 325 325 326 327 328 329 330 332 335
320 319 325 318 306 300 302 306 304 304 303 303 303 303 302 299 302 303 306 308 308 309 310 313 317 319 320 321 321 321 322 322 323 323 324 325 324 324 324 324 324 324 325 326 327 327 327 327 328
318 313 316 312 305 300 302 305 304 302 303 303 301 302 301 299 302 303 307 307 308 308 309 311 316 318 319 320 320 320 320 321 322 322 323 323 322 322 322 322 321 322 323 325 326 326 326 326 325
317 314 311 306 299 300 304 307 303 302 303 303 303 299 301 303 303 305 307 307 307 308 309 310 314 316 317 318 318 319 320 320 320 320 320 320 320 319 319 319 319 320 321 322 322 323 322 322 322
317 313 306 302 299 301 305 305 305 303 304 303 303 299 299 302 305 305 306 306 306 307 309 309 311 313 315 316 317 317 318 319 319 318 318 318 318 318 319 318 320 321 320 320 320 320 320 319 320
312 311 303 300 299 301 306 305 305 304 303 301 302 300 299 304 304 304 305 306 307 307 308 309 309 310 312 313 314 316 316 316 316 316 316 316 315 316 317 317 319 320 320 320 320 319 318 319 319
309 308 300 299 299 301 304 306 305 305 303 302 303 299 300 301 304 305 305 306 307 308 308 309 310 309 309 310 311 312 314 313 313 313 313 312 312 313 314 314 317 319 319 319 319 319 319 320 319
308 307 298 298 298 299 302 304 303 304 301 301 301 300 298 303 304 305 305 306 306 307 308 308 309 310 310 311 308 309 310 311 310 310 309 310 311 312 312 312 315 317 317 318 319 320 320 321 320
305 304 299 298 297 298 299 302 300 300 300 300 300 300 300 303 303 303 304 303 305 306 307 308 308 309 310 310 309 309 308 308 309 309 308 312 312 311 311 310 312 314 315 317 319 320 319 317 319
306 303 300 299 300 299 298 300 300 299 298 298 298 299 300 301 302 302 302 302 303 304 306 307 308 308 309 309 310 310 309 309 308 307 308 309 310 308 309 310 309 311 311 313 316 318 317 316 319
300 302 298 297 297 297 298 297 300 299 298 302 300 300 300 301 301 301 301 302 302 303 305 306 307 308 309 308 309 308 308 307 306 305 305 306 307 307 307 308 309 310 309 311 311 314 315 315 319
300 295 296 296 296 296 296 298 297 299 301 299 301 302 300 300 300 300 300 301 302 303 304 305 307 307 307 307 306 305 304 304 303 302 302 303 303 303 303 303 305 307 307 307 310 312 314 316 318
299 295 295 295 295 295 296 296 298 297 300 298 298 299 300 300 300 301 301 302 302 302 303 305 306 306 305 304 304 303 301 300 300 299 299 299 299 300 300 300 301 302 304 306 308 309 311 315 317
295 295 294 294 295 295 294 295 295 296 296 297 298 299 299 299 300 300 301 301 301 302 303 304 304 304 303 301 301 300 299 298 298 298 297 298 298 298 298 298 298 298 300 303 305 306 310 311 311
295 294 294 294 294 293 294 293 293 295 296 296 297 298 298 299 299 300 301 301 302 302 303 303 303 302 300 299 298 298 297 297 296 296 296 296 296 296 296 296 295 296 298 300 302 304 310 307 310
293 293 292 291 293 293 293 292 291 293 295 296 297 297 297 298 299 300 301 302 301 302 302 303 301 299 298 297 297 296 296 295 295 294 295 295 295 295 295 295 294 295 296 298 299 300 306 306 307
291 290 290 288 292 292 291 292 290 293 294 296 297 297 297 298 299 300 301 302 301 302 302 302 301 298 297 296 296 295 295 294 294 294 293 294 294 294 294 294 294 295 295 295 297 297 300 303 305
288 288 286 288 290 290 289 291 293 293 293 295 297 297 297 297 298 300 301 301 300 300 301 302 301 299 298 298 297 295 294 293 293 292 292 293 293 293 294 294 293 294 293 294 295 296 297 297 299
290 288 287 287 289 289 290 290 293 295 292 293 295 296 297 297 299 300 301 301 300 298 299 300 300 299 300 300 299 295 292 292 292 292 291 292 292 292 292 293 292 293 292 292 293 295 294 294 296
288 287 286 288 289 289 288 289 294 295 293 294 296 296 296 297 297 298 299 300 299 298 298 298 298 298 299 299 297 296 293 291 291 291 291 291 291 291 291 291 291 292 292 291 292 292 293 293 294
288 289 287 287 288 288 287 289 291 294 292 293 294 296 297 297 296 297 298 299 299 297 297 297 296 296 296 295 294 293 292 292 291 289 289 289 290 290 291 291 291 291 291 290 290 291 291 290 292
286 289 288 288 288 286 288 287 289 292 295 294 295 295 296 296 296 298 298 299 299 298 297 296 295 295 294 295 294 292 291 289 289 289 289 289 289 289 290 290 290 290 290 290 289 290 290 291 289
287 290 289 288 288 287 285 286 290 292 293 294 295 296 295 295 296 297 298 299 299 297 296 295 295 294 293 292 292 291 289 289 289 288 288 288 288 289 289 289 289 289 290 289 289 289 289 289 288
291 290 289 289 288 283 285 286 293 292 290 294 296 296 294 292 295 297 299 299 297 296 295 295 294 292 292 291 291 290 289 288 287 287 288 287 288 288 288 288 289 289 288 288 288 289 288 288 286
290 288 285 285 283 283 283 285 293 291 292 291 292 293 293 293 294 295 296 295 295 294 294 294 293 291 291 290 290 289 289 288 287 287 287 287 287 287 287 288 287 287 288 288 289 288 288 287 285
288 288 287 283 282 283 282 283 291 291 290 291 291 292 292 293 294 295 296 296 295 294 293 293 292 290 290 290 289 289 289 288 287 287 287 286 286 286 287 287 287 287 287 287 288 287 287 288 287
287 285 290 283 278 284 286 289 293 290 290 290 291 292 293 293 294 294 296 296 295 294 293 293 292 290 290 289 289 288 288 287 287 287 287 286 287 286 286 286 286 286 286 286 287 286 286 287 287
288 289 284 286 280 280 284 284 290 288 289 290 291 293 294 293 293 294 295 296 295 295 294 293 292 290 290 289 289 288 287 287 287 287 286 286 286 285 285 285 285 285 285 285 286 286 286 286 286
285 285 285 287 286 283 282 288 291 290 290 291 292 293 294 295 294 295 295 295 295 295 294 292 291 290 289 289 288 287 287 287 287 286 285 285 285 285 284 284 284 284 284 285 285 285 285 285 285
286 286 288 286 280 282 283 289 291 290 291 292 294 294 295 294 295 295 295 295 294 294 293 292 291 290 289 289 288 287 286 286 286 285 285 285 284 284 284 284 283 283 283 283 284 283 284 284 284

GFSSGP_sfc_thetae_288.txt.gz
Theta_e
326 325 324 323 307 305 297 302 306 303 302 306 310 306 304 301 301 299 307 308 309 309 310 314 319 321 322 323 324 324 325 325 326 326 325 325 325 325 325 325 325 326 327 328 328 327 327 327 325
320 321 322 318 302 295 296 305 301 302 304 308 309 307 305 297 304 304 304 308 308 309 310 312 317 320 321 322 321 323 323 323 324 323 324 324 324 323 324 323 325 326 326 327 327 327 325 324 324
321 319 312 308 301 294 296 303 301 303 306 306 304 306 304 299 303 303 306 307 308 308 309 311 316 319 320 320 321 321 321 322 323 323 322 321 321 322 321 322 323 325 325 326 326 325 325 324 324
317 315 311 301 299 302 304 303 302 302 303 306 306 300 301 304 303 304 307 307 306 308 309 312 315 317 318 319 319 320 320 321 320 320 320 320 321 321 320 321 323 323 324 325 324 325 325 326 326
316 312 302 299 300 304 306 306 305 303 304 303 304 299 299 302 305 306 306 307 305 306 308 310 314 315 316 317 318 318 318 318 319 319 318 318 319 319 320 319 322 323 324 325 324 326 326 326 324
309 310 299 296 300 305 305 308 307 306 306 302 302 301 298 303 303 303 305 305 305 306 309 311 313 313 314 315 315 316 316 316 316 316 317 317 318 318 319 318 320 320 321 323 324 325 325 325 325
308 305 300 300 300 303 305 307 305 306 305 302 303 297 297 300 303 304 303 304 306 306 308 308 309 312 315 314 313 312 313 314 315 315 315 316 316 315 316 315 317 319 320 321 322 323 323 326 326
307 306 300 299 299 300 306 306 307 305 299 303 301 296 293 300 304 304 303 303 304 306 307 307 308 309 309 310 311 310 312 313 312 312 312 316 314 312 313 312 315 318 318 319 321 322 322 325 326
311 301 297 299 299 300 306 302 303 302 300 300 301 298 300 303 304 302 302 302 303 306 305 306 307 308 309 309 310 313 314 314 309 306 310 307 304 304 304 310 312 314 315 317 319 321 321 321 317
304 300 298 300 299 299 304 303 301 299 299 298 298 299 302 302 300 300 298 299 301 302 304 305 306 307 308 310 308 306 306 304 302 300 299 301 300 301 303 304 308 308 310 313 316 319 316 312 311
304 299 300 299 300 301 300 298 300 297 297 299 298 297 299 299 300 299 299 300 300 303 304 305 306 306 305 305 304 302 301 300 299 297 297 298 298 297 297 297 298 299 304 303 307 313 311 307 305
300 299 301 300 298 299 297 299 296 297 295 299 300 300 299 299 299 299 299 300 301 303 304 305 305 305 303 303 300 299 297 297 295 295 295 295 295 294 294 295 294 295 297 299 307 310 310 305 302
301 297 298 298 297 297 298 295 294 294 297 299 300 301 299 299 299 299 301 301 302 302 304 303 304 302 302 300 298 297 295 295 294 293 294 294 293 293 294 293 293 294 296 297 306 309 308 306 300
299 298 296 297 296 296 295 294 294 294 298 297 298 298 298 299 298 298 299 300 302 303 303 303 302 301 300 297 296 294 293 293 293 292 293 294 293 293 293 293 293 293 294 296 302 308 307 305 302
298 294 294 294 295 294 294 292 292 294 295 296 296 296 298 298 299 298 299 300 301 303 303 302 300 299 297 296 294 293 293 293 291 292 292 293 294 293 292 292 292 292 294 295 298 303 307 308 304
294 293 289 293 294 293 291 288 293 295 293 293 294 294 296 297 298 298 300 300 302 302 302 301 301 297 295 293 292 292 292 291 290 291 291 292 293 293 292 291 291 292 293 294 294 296 298 303 302
291 285 289 288 293 292 290 288 290 292 291 291 293 294 295 295 296 298 300 300 301 302 302 300 298 295 294 293 292 291 291 290 290 289 290 291 292 293 291 291 291 292 292 292 293 293 292 292 296
286 285 287 287 288 288 288 288 291 292 292 291 291 293 294 295 296 298 299 300 301 301 302 300 298 295 294 293 292 291 290 289 289 288 289 290 291 292 291 291 291 291 291 291 292 291 292 291 291
290 289 286 287 289 287 287 288 290 291 290 290 290 291 293 294 297 298 299 299 299 300 300 300 297 296 295 295 292 289 287 288 288 288 289 289 290 291 290 290 290 290 290 289 291 291 290 290 291
288 285 284 286 289 287 287 286 290 291 291 292 292 292 293 294 295 297 298 298 298 298 299 300 298 298 297 295 292 289 287 287 287 289 288 289 289 290 290 289 289 289 288 288 289 289 289 290 290
288 286 285 286 287 286 284 285 286 289 292 293 293 292 293 292 295 297 297 297 297 296 297 299 298 298 295 292 291 289 289 288 287 287 286 287 289 289 289 289 289 288 288 287 288 288 287 285 288
287 291 289 288 284 280 285 281 288 291 290 293 293 293 293 293 294 297 297 296 296 296 297 298 298 297 294 292 291 288 288 285 285 286 286 287 288 288 289 289 288 288 288 287 288 288 286 286 284
288 290 288 288 283 282 282 279 285 289 290 291 292 293 293 293 294 295 296 297 298 297 295 295 295 294 294 293 290 288 286 286 286 286 285 286 286 287 288 288 287 287 287 287 286 286 285 286 285
292 290 289 286 285 277 283 282 284 288 291 291 292 291 292 292 292 295 297 298 297 295 294 293 292 291 291 289 289 288 286 285 285 285 284 284 285 286 287 288 287 287 286 286 286 287 285 285 286
291 287 279 276 275 277 284 280 284 290 290 291 291 291 291 292 292 294 295 296 295 294 293 293 292 290 289 288 288 288 287 286 285 285 284 284 284 284 285 285 285 285 286 286 287 287 285 285 285
288 287 283 274 277 279 281 279 286 289 291 292 293 293 293 292 294 294 295 296 295 294 293 292 291 289 289 288 288 288 288 286 286 285 285 284 284 284 285 285 285 285 286 286 287 286 285 286 285
286 282 289 283 276 279 282 286 289 289 290 291 291 293 292 293 293 294 296 296 294 293 293 292 291 290 289 288 287 287 286 286 285 285 285 284 284 286 285 284 284 284 285 285 286 285 285 285 285
287 289 281 280 273 274 281 282 285 284 287 290 291 291 292 293 293 294 294 295 295 294 293 292 292 289 289 288 287 287 286 286 285 285 284 284 284 285 284 283 283 283 284 285 285 285 285 284 284
284 282 284 286 284 280 279 282 287 287 290 290 291 292 292 291 293 293 294 295 295 294 293 292 291 289 288 288 287 286 285 285 285 284 284 283 284 284 283 283 283 282 283 283 283 284 284 284 284
286 285 287 281 280 282 282 283 289 291 292 293 292 293 292 292 293 294 294 294 294 293 292 291 291 289 288 288 287 286 285 284 283 283 283 283 283 283 283 282 282 282 283 283 283 282 283 282 282

GFSSGP_sfc_thetae_291.txt.gz
Theta_e
322 315 318 315 301 300 296 299 300 299 298 303 308 305 301 300 298 299 305 307 307 308 312 313 320 322 322 323 324 324 325 325 326 326 324 325 325 324 326 326 327 327 329 330 329 327 327 326 326
319 318 314 309 297 294 295 299 297 297 302 308 306 305 302 296 302 303 303 307 307 308 311 312 318 321 321 321 322 323 323 324 324 324 324 324 325 324 324 325 325 326 328 328 328 328 328 327 326
318 317 303 302 295 292 295 297 298 302 304 306 302 303 300 296 302 301 303 305 306 307 311 312 317 320 320 321 322 321 322 322 322 322 323 323 322 322 321 324 325 326 328 329 329 329 327 326 326
309 308 303 296 294 297 298 296 300 300 303 306 303 298 300 302 301 302 305 305 305 306 309 313 316 318 320 320 320 320 320 320 320 320 320 321 321 321 321 324 323 324 325 327 328 327 327 326 329
308 303 296 293 294 297 299 300 301 300 301 301 303 297 296 300 303 304 304 305 303 304 307 310 315 317 318 318 319 318 318 318 319 319 319 319 319 320 320 321 322 324 324 326 326 327 328 329 329
302 302 293 291 295 299 301 303 303 301 301 300 299 297 296 301 301 302 303 302 304 305 308 309 314 315 317 316 316 316 317 317 317 317 318 317 316 318 317 320 320 321 322 324 324 325 329 328 327
300 298 294 293 297 298 302 304 301 301 300 299 301 294 295 298 301 302 302 302 304 305 306 306 308 312 316 315 314 314 315 314 313 314 314 312 312 313 314 316 318 320 322 323 323 325 325 324 323
301 298 294 295 296 297 301 300 302 300 297 300 299 292 291 297 301 301 302 302 303 304 305 305 306 307 307 308 312 311 312 309 308 308 309 308 307 308 308 309 313 317 319 322 321 321 321 319 317
303 295 292 292 295 298 301 298 299 299 298 296 297 295 297 301 301 299 299 299 301 304 303 304 305 306 306 308 309 308 309 305 303 302 304 301 299 300 300 305 308 311 314 320 320 317 315 311 310
298 293 292 294 293 298 302 299 298 296 295 294 294 297 299 299 298 297 296 297 299 300 302 303 304 304 304 307 302 300 301 298 296 295 295 297 296 297 298 300 304 305 308 315 318 315 309 305 300
298 293 295 295 297 299 297 296 298 296 293 295 294 295 297 297 297 297 297 298 299 300 302 303 303 302 302 301 299 296 296 294 293 293 294 294 294 293 294 294 295 295 301 304 312 303 299 298 297
295 295 296 297 296 297 295 296 293 293 293 297 298 297 296 296 296 296 297 298 300 301 302 302 302 301 299 297 295 294 294 292 292 292 293 292 292 291 292 293 292 293 296 301 309 306 299 297 297
295 293 295 295 295 294 296 293 292 292 294 297 298 298 296 296 296 296 298 299 300 301 301 300 299 298 297 295 293 292 291 291 291 291 292 292 291 290 292 291 291 292 294 297 306 306 302 298 297
293 294 293 294 294 294 293 291 292 291 293 295 297 295 295 296 295 296 297 298 300 301 300 299 298 297 296 293 292 290 290 290 290 290 291 292 291 290 291 291 291 292 293 294 299 307 305 300 297
294 291 290 291 292 292 292 289 290 291 293 293 294 294 296 296 296 296 297 298 300 301 300 298 297 295 293 292 291 290 290 290 289 290 290 291 292 291 290 290 290 291 292 293 295 295 301 301 296
291 290 286 289 292 291 290 286 290 291 291 290 291 291 294 294 296 296 297 299 300 300 299 298 297 293 291 290 290 290 289 288 288 288 289 290 291 291 290 290 290 291 292 292 292 292 292 293 294
287 282 285 285 292 289 288 286 289 291 289 289 289 290 292 293 293 295 297 299 299 300 298 295 294 292 291 290 290 289 289 287 287 287 288 289 291 291 290 289 290 290 290 290 290 290 290 290 291
282 282 284 284 287 287 285 285 288 289 288 288 288 289 291 292 293 295 297 298 299 299 298 295 293 292 291 290 289 288 287 287 287 286 288 289 290 290 289 289 289 290 289 289 289 289 289 289 289
287 285 282 283 286 285 284 284 286 288 287 286 288 288 290 292 294 296 297 297 298 298 297 295 293 293 293 291 288 287 285 285 285 287 288 288 289 289 288 288 288 289 287 287 288 289 289 288 289
285 283 281 284 286 284 283 284 286 287 287 288 289 289 290 291 293 296 296 296 297 297 298 296 295 294 294 291 288 287 285 285 286 286 287 288 288 289 289 288 287 287 287 287 286 286 286 288 288
285 283 282 283 285 284 282 281 284 287 288 289 290 291 291 291 294 295 296 294 295 296 296 297 296 295 291 290 289 288 287 287 285 285 285 286 287 288 288 287 287 287 287 286 285 285 285 284 287
284 288 287 286 281 278 284 275 282 286 288 289 290 291 290 290 293 296 295 294 294 294 295 297 296 292 291 290 288 287 286 283 283 284 284 285 286 287 288 287 286 286 287 285 286 286 285 284 283
286 288 287 285 282 279 279 276 280 287 286 288 289 290 289 290 292 294 295 296 295 294 294 293 293 293 293 291 289 286 284 284 284 284 284 284 285 286 287 286 286 286 286 285 285 284 284 285 284
289 288 287 284 282 275 279 278 278 285 288 288 288 288 290 290 291 294 295 296 294 293 292 291 290 290 290 288 287 285 284 284 283 283 282 283 283 284 285 286 285 285 285 285 285 285 284 284 284
288 283 276 273 273 275 281 278 282 288 288 289 289 289 289 290 291 293 293 293 292 291 291 290 290 288 287 287 287 286 285 285 283 283 282 282 282 282 283 284 284 284 285 285 285 284 283 283 283
284 285 276 271 274 276 280 278 283 287 289 290 291 290 291 290 292 293 293 293 292 292 291 290 289 288 287 287 286 286 286 285 284 284 283 282 282 282 283 283 283 284 285 285 285 284 284 283 283
284 281 287 281 272 278 280 282 287 287 289 290 290 291 290 290 291 292 294 293 292 292 291 291 289 288 287 287 286 286 285 285 283 283 283 282 282 284 283 283 282 283 284 284 284 283 283 283 283
284 287 280 279 272 272 278 280 283 283 286 289 289 289 290 291 291 292 293 293 293 293 292 290 289 288 288 287 286 286 285 284 284 283 282 282 282 283 282 282 282 282 283 283 283 283 283 282 283
282 280 282 283 282 278 276 280 284 286 288 288 289 291 290 291 291 292 292 294 293 292 291 290 289 288 287 287 286 285 284 284 284 282 282 282 282 282 282 282 281 282 281 282 282 282 282 282 282
284 284 286 280 279 281 282 282 287 287 289 290 290 291 290 291 292 292 292 293 292 292 291 289 288 287 287 287 286 285 284 283 282 281 281 282 282 282 281 281 281 281 281 281 281 281 281 281 281